Regional Weather Roundup
Issued by NWS

Home | Current Version | Previous Version | Graphics & Text | Print | Product List | Glossary On
Versions: 1 2 3 4 5 6 7 8 9 10 11 12 13 14 15 16 17 18 19 20 21 22 23 24 25 26 27 28 29 30 31 32 33 34 35 36 37 38 39 40 41 42 43 44 45 46 47 48 49 50
000
ASUS43 KMKX 202000
RWRWI

WISCONSIN REGIONAL WEATHER ROUNDUP
NATIONAL WEATHER SERVICE MILWAUKEE/SULLIVAN WI
300 PM CDT SUN APR 20 2014

NOTE: "FAIR" INDICATES FEW OR NO CLOUDS BELOW 12,000 FEET WITH NO
SIGNIFICANT WEATHER AND/OR OBSTRUCTIONS TO VISIBILITY.

WIZ001-002-006>008-014>016-023>028-202100-
NORTHWEST WISCONSIN

CITY           SKY/WX    TMP DP  RH WIND       PRES   REMARKS
SUPERIOR ARPT  SUNNY     64  37  36 SW3       30.01S
ASHLAND        SUNNY     60  42  51 N7        30.01F
HAYWARD        SUNNY     69  28  21 W7        30.00F
SIREN          SUNNY     69  33  27 NW6       30.01F
RICE LAKE      MOSUNNY   70  37  29 SW3       30.01F
LADYSMITH      MOSUNNY   70  46  43 S7        30.02F
EAU CLAIRE     NOT AVBL
MENOMONIE      PTCLDY    68  50  51 SE5       30.00F
NEW RICHMOND   PTSUNNY   71  38  30 CALM      30.00S
OSCEOLA        SUNNY     72  36  26 CALM      30.01F
$$

WIZ003>005-009-010-017-018-202100-
NORTH CENTRAL WISCONSIN

CITY           SKY/WX    TMP DP  RH WIND       PRES   REMARKS
WOODRUFF       SUNNY     72  37  28 W9G16     30.00F
RHINELANDER    CLOUDY    62  48  60 SW6       30.03F
EAGLE RIVER    SUNNY     67  32  27 SW6       30.01F
LAND O LAKES   SUNNY     67  31  26 SW6       30.02S
PHILLIPS       SUNNY     69  40  35 S6        30.00F
TOMAHAWK       PTSUNNY   64  50  59 CALM      30.03F
MEDFORD        CLOUDY    59  52  76 S8        30.04F
MERRILL        CLOUDY    60  51  70 CALM      30.04F
$$

WIZ029-030-035-036-043>047-202100-
CENTRAL WISCONSIN

CITY           SKY/WX    TMP DP  RH WIND       PRES   REMARKS
WAUSAU         CLOUDY    56  49  77 S9        30.04S
MOSINEE        CLOUDY    54  52  94 S7        30.07F
MARSHFIELD     CLOUDY    58  52  80 S8        30.04F
STEVENS POINT  CLOUDY    56  49  78 SW8       30.07F
WAUPACA        CLOUDY    55  50  82 SE3       30.08F
WAUTOMA        NOT AVBL
WISC RAPIDS    CLOUDY    57  52  83 S8        30.07F
CAMP DOUGLAS   NOT AVBL
$$

WIZ011>013-019>022-031-037>040-048>050-202100-
NORTHEAST WISCONSIN

CITY           SKY/WX    TMP DP  RH WIND       PRES   REMARKS
ANTIGO         CLOUDY    59  51  74 SW10      30.05F
STURGEON BAY   CLOUDY    43  37  81 S7        30.10F
GREEN BAY      LGT RAIN  55  48  77 CALM      30.09F
MANITOWOC      NOT AVBL
APPLETON       CLOUDY    55  46  71 VRB5      30.09F
CLINTONVILLE   CLOUDY    52  50  93 SW5       30.09F
OSHKOSH        LGT RAIN  63  48  58 SW3       30.08F
$$

WIZ032>034-041-042-053>061-202100-
SOUTHWEST WISCONSIN

CITY           SKY/WX    TMP DP  RH WIND       PRES   REMARKS
LA CROSSE      CLOUDY    57  54  89 S9        30.04S
SPARTA         LGT RAIN  56  54  91 S3        30.05F
VIROQUA        CLOUDY    55  55  97 S6        30.06S
BOSCOBEL       CLOUDY    63  57  81 E5        30.06F
PRAIRIE DU CHI LGT RAIN  64  54  72 SE6       30.06S
PLATTEVILLE    FAIR      78  44  30 SW12G20   30.06S
$$

WIZ056-057-062-063-064-067-068-202100-
SOUTH CENTRAL WISCONSIN

CITY           SKY/WX    TMP DP  RH WIND       PRES   REMARKS
BARABOO/DELLS  CLOUDY    65  44  46 W5        30.09R
LONE ROCK      NOT AVBL
WATERTOWN      MOSUNNY   75  45  34 S12       30.07F
MADISON        CLOUDY    77  43  29 SW3       30.06F
MIDDLETON      MOCLDY    76  39  25 W3        30.06F
MONROE         MOSUNNY   78  43  29 SW13      30.07S
JANESVILLE     SUNNY     81  37  21 W13G18    30.06F
$$

WIZ051-052-058>065-066-070>072-202100-
SOUTHEAST WISCONSIN

CITY           SKY/WX    TMP DP  RH WIND       PRES   REMARKS
MILWAUKEE      PTSUNNY   71  41  33 SE14      30.09F
WAUKESHA       MOSUNNY   73  43  33 SW9G16    30.09F
MILWAUKEE/TIMM SUNNY     77  37  24 SW14G20   30.08F
RACINE         MOSUNNY   64  37  36 S14       30.11F
BURLINGTON     MOSUNNY   76  41  28 SW12G20   30.09F
KENOSHA        MOSUNNY   77  42  28 S14       30.09F
FOND DU LAC    LGT RAIN  67  46  47 S5        30.08F
SHEBOYGAN      PTSUNNY   62  42  47 SE5       30.10F
WEST BEND      CLOUDY    73  37  27 SW9       30.08F
JUNEAU         PTSUNNY   71  35  26 SW9       30.09F
$$

LSZ147-162-202100-
LAKE SUPERIOR

STATION/POSITION TIME  TEMP    WIND        PRES    WAVE
                       AIR SEA DIR/SP/G            HT/PER
                 (UTC) (F)     (DEG/KT/KT) (MB)    (FT/S)
DEVILS ISLAND    1900   44     260/  3/  3 1017.5F
PORT WING        1940   40     360/  2/  4 1016.9S
SAXON HARBOR     1900             CALM     1017.3F
$$

LMZ867-665-643>646-202100-
LAKE MICHIGAN

STATION/POSITION TIME  TEMP    WIND        PRES    WAVE
                       AIR SEA DIR/SP/G            HT/PER
                 (UTC) (F)     (DEG/KT/KT) (MB)    (FT/S)
NORTHPORT PIER   1920   39     160/  9/ 22 1018.6F
SISTER BAY       1909   41     150/  9/ 13   N/A
KEWAUNEE LAKESHO 1900   39     170/ 10/ 12 1020.7F
SHEBOYGAN LAKESH 1900   42     160/ 13/ 15 1020.7F
PORT WASHINGTON  1940   47     170/  3/  6 1019.6F
MILWAUKEE LAKESH 1900   45     140/ 19/ 22   N/A
KENOSHA   LAKESH 1900   47     160/ 12/ 17   N/A
$$

TC  - TEMPERATURE IN CELSIUS
VSB - VISIBILITY IN STATUTE MILES
WCI - WIND CHILL INDEX
HX  - HEAT INDEX




USA.gov is the U.S. government's official web portal to all federal, state and local government web resources and services.